This is the latest recevied weather packets stored in our database for station/object K7DC. If no packets are shown the sender has not sent any weather packets the latest 10 day(s).
| Time | Temp. | Humidity | Pressure | Rain* | Wind** | Luminosity | Snow |
|---|---|---|---|---|---|---|---|
| 1777851880 | 30.56° C | 12% | 1010.4 hPa | 0 mm | - | 224 W/m² | - |
| 1777851578 | 30.56° C | 13% | 1010.4 hPa | 0 mm | - | 275 W/m² | - |
| 1777851274 | 30.56° C | 13% | 1010.4 hPa | 0 mm | - | 244 W/m² | - |
| 1777850971 | 31.11° C | 13% | 1010.4 hPa | 0 mm | - | 233 W/m² | - |
| 1777850668 | 31.11° C | 13% | 1010.3 hPa | 0 mm | - | 289 W/m² | - |
| 1777850366 | 31.11° C | 13% | 1010.3 hPa | 0 mm | - | 333 W/m² | - |
| 1777850063 | 31.11° C | 12% | 1010.4 hPa | 0 mm | - | 323 W/m² | - |
| 1777849759 | 31.67° C | 13% | 1010.4 hPa | 0 mm | - | 287 W/m² | - |
| 1777849456 | 31.67° C | 12% | 1010.4 hPa | 0 mm | - | 262 W/m² | - |
| 1777849154 | 31.67° C | 12% | 1010.2 hPa | 0 mm | - | 306 W/m² | - |
| 1777848850 | 32.78° C | 13% | 1010.6 hPa | 0 mm | - | 293 W/m² | - |
| 1777848546 | 32.78° C | 13% | 1010.5 hPa | 0 mm | - | 365 W/m² | - |
| 1777848243 | 32.78° C | 12% | 1010.6 hPa | 0 mm | - | 329 W/m² | - |
| 1777847941 | 32.22° C | 13% | 1010.7 hPa | 0 mm | - | 381 W/m² | - |
| 1777847639 | 32.22° C | 14% | 1010.7 hPa | 0 mm | - | 380 W/m² | - |
| 1777847333 | 32.22° C | 14% | 1010.6 hPa | 0 mm | - | 371 W/m² | - |
| 1777847033 | 32.78° C | 13% | 1010.9 hPa | 0 mm | - | 292 W/m² | - |
| 1777846730 | 32.22° C | 14% | 1010.6 hPa | 0 mm | - | 362 W/m² | - |
| 1777846429 | 32.78° C | 15% | 1010.5 hPa | 0 mm | - | 388 W/m² | - |
| 1777846124 | 32.78° C | 14% | 1010.8 hPa | 0 mm | - | 496 W/m² | - |
| 1777845821 | 32.22° C | 15% | 1010.6 hPa | 0 mm | - | 447 W/m² | - |
| 1777845518 | 32.22° C | 15% | 1010.6 hPa | 0 mm | - | 439 W/m² | - |
| 1777845216 | 32.22° C | 15% | 1010.6 hPa | 0 mm | - | 555 W/m² | - |
| 1777844913 | 32.22° C | 15% | 1010.6 hPa | 0 mm | - | 370 W/m² | - |
| 1777844610 | 32.22° C | 15% | 1010.8 hPa | 0 mm | - | 380 W/m² | - |
* Rain latest hour (hover to see other rain measurements)
** Current wind speed in m/s (hover to see current wind gust speed)